Edinburg, TX

9:01 AM CDT on August 26, 2016 (GMT -0500)
Edinburg

Weather History for KEBG - November, 2013

Change the Weather History Date:

Saturday, November 16, 2013

  Actual Average (KMFE) Record (KMFE)
Temperature  
Mean Temperature 74 °F 69 °F  
Max Temperature 86 °F 80 °F 93 °F (2011)
Min Temperature 61 °F 59 °F 34 °F (1970)
Degree Days  
Heating Degree Days 0 2  
Month to date heating degree days 18  
Since 1 July heating degree days 23  
Cooling Degree Days 8 6  
Month to date cooling degree days 121  
Year to date cooling degree days 4303  
Growing Degree Days 24 (Base 50)    
Moisture  
Dew Point 67 °F    
Average Humidity 79    
Maximum Humidity 93    
Minimum Humidity 57    
Precipitation  
Precipitation 0.00 in 0.02 in 0.57 in (1943)
Month to date precipitation 0.53  
Year to date precipitation 20.65  
Sea Level Pressure  
Sea Level Pressure 29.84 in    
Wind  
Wind Speed 6 mph (SSE)    
Max Wind Speed 18 mph    
Max Gust Speed 23 mph    
Visibility 6 miles    
Events Fog    
T = Trace of Precipitation, MM = Missing Value Source: NWS Daily Summary

Daily Weather History Graph

Daily Weather History Graph

Search for Another Location

Airport or City:

Trip Planner

Search our weather history database for the weather conditions in past years. The results will help you decide how hot, cold, wet, or windy it might be!

Date:

Astronomy

Nov. 16, 2013 Rise Set
Actual Time 6:52 AM CST 5:42 PM CST
Civil Twilight 6:27 AM CST 6:06 PM CST
Nautical Twilight 5:59 AM CST 6:34 PM CST
Astronomical Twilight 5:32 AM CST 7:02 PM CST
Moon 5:14 PM CST (11/16) 5:54 AM CST (11/16)
Length of Visible Light 11h 38m
Length of Day
10h 49m
Waxing Gibbous, 99% of the Moon is Illuminated
Nov 16
Waxing Gibbous
Nov 17
Full
Nov 25
Last Quarter
Dec 2
New
Dec 9
First Quarter

Hourly Weather History & Observations

Time (CST) Temp. Heat Index Dew Point Humidity Pressure Visibility Wind Dir Wind Speed Gust Speed Precip Events Conditions
12:15 AM 62.6 °F - 59.0 °F 88% 29.94 in 7.0 mi SE 3.5 mph - N/A   Clear
12:35 AM 62.2 °F - 59.0 °F 89% 29.93 in 5.0 mi SE 3.5 mph - N/A   Clear
12:55 AM 61.5 °F - 58.3 °F 89% 29.91 in 5.0 mi SE 4.6 mph - N/A   Clear
1:15 AM 62.8 °F - 59.7 °F 90% 29.90 in 5.0 mi SE 4.6 mph - N/A   Clear
1:35 AM 63.1 °F - 60.3 °F 90% 29.90 in 5.0 mi SSE 5.8 mph - N/A   Clear
1:55 AM 65.1 °F - 62.1 °F 90% 29.89 in 4.0 mi SSE 3.5 mph - N/A   Clear
2:15 AM 67.1 °F - 64.4 °F 91% 29.88 in 5.0 mi SSE 5.8 mph - N/A   Clear
2:35 AM 66.2 °F - 63.5 °F 91% 29.88 in 4.0 mi SSE 4.6 mph - N/A   Clear
2:55 AM 65.3 °F - 62.6 °F 91% 29.87 in 3.0 mi SSE 4.6 mph - N/A   Clear
3:15 AM 66.6 °F - 64.0 °F 92% 29.87 in 4.0 mi SSE 4.6 mph - N/A   Clear
3:35 AM 65.5 °F - 62.6 °F 90% 29.87 in 2.5 mi Calm Calm - N/A   Overcast
3:55 AM 64.6 °F - 62.1 °F 92% 29.87 in 1.8 mi SSE 3.5 mph - N/A   Overcast
4:15 AM 64.4 °F - 61.7 °F 91% 29.86 in 0.5 mi Calm Calm - N/A Fog Fog
4:35 AM 64.4 °F - 61.9 °F 92% 29.86 in 0.2 mi SSE 3.5 mph - N/A Fog Fog
4:55 AM 65.3 °F - 62.6 °F 91% 29.86 in 0.2 mi Calm Calm - N/A Fog Fog
5:15 AM 64.6 °F - 62.1 °F 92% 29.86 in 0.2 mi Calm Calm - N/A Fog Fog
5:35 AM 65.3 °F - 62.8 °F 92% 29.86 in 0.5 mi Calm Calm - N/A Fog Fog
5:55 AM 65.3 °F - 62.8 °F 92% 29.86 in 0.5 mi Calm Calm - N/A Fog Fog
6:15 AM 65.3 °F - 63.0 °F 92% 29.86 in 0.8 mi Calm Calm - N/A   Overcast
6:35 AM 65.7 °F - 63.5 °F 93% 29.85 in 1.5 mi SSE 4.6 mph - N/A   Mostly Cloudy
6:55 AM 66.2 °F - 63.9 °F 92% 29.85 in 3.0 mi SE 5.8 mph - N/A   Clear
7:15 AM 67.5 °F - 65.1 °F 92% 29.86 in 4.0 mi SE 4.6 mph - N/A   Clear
7:35 AM 68.2 °F - 65.8 °F 92% 29.86 in 4.0 mi SE 5.8 mph - N/A   Clear
7:55 AM 68.4 °F - 66.2 °F 93% 29.87 in 4.0 mi SE 4.6 mph - N/A   Clear
8:15 AM 69.8 °F - 67.3 °F 92% 29.88 in 5.0 mi SE 3.5 mph - N/A   Clear
8:35 AM 70.3 °F - 68.0 °F 92% 29.89 in 5.0 mi Calm Calm - N/A   Scattered Clouds
8:55 AM 70.9 °F - 68.4 °F 92% 29.90 in 7.0 mi SSE 3.5 mph - N/A   Mostly Cloudy
9:15 AM 71.6 °F - 68.9 °F 91% 29.89 in 5.0 mi SE 3.5 mph - N/A   Scattered Clouds
9:35 AM 72.5 °F - 69.8 °F 91% 29.90 in 7.0 mi SE 4.6 mph - N/A   Scattered Clouds
9:55 AM 73.4 °F - 70.3 °F 90% 29.90 in 5.0 mi SE 3.5 mph - N/A   Scattered Clouds
10:15 AM 75.7 °F - 70.9 °F 85% 29.90 in 5.0 mi Calm Calm - N/A   Haze
10:35 AM 79.9 °F - 70.0 °F 72% 29.90 in 7.0 mi South 10.4 mph - N/A   Mostly Cloudy
10:55 AM 79.3 °F - 69.1 °F 71% 29.89 in 7.0 mi SSE 9.2 mph - N/A   Overcast
11:15 AM 80.4 °F 83.5 °F 69.6 °F 69% 29.88 in 7.0 mi SSE 5.8 mph - N/A   Overcast
11:35 AM 82.6 °F 86.4 °F 69.8 °F 65% 29.86 in 7.0 mi SSE 12.7 mph - N/A   Overcast
11:55 AM 83.7 °F 87.5 °F 69.6 °F 62% 29.85 in 7.0 mi SSE 15.0 mph 19.6 mph N/A   Mostly Cloudy
12:15 PM 83.7 °F 87.2 °F 69.1 °F 61% 29.85 in 7.0 mi South 15.0 mph - N/A   Mostly Cloudy
12:35 PM 83.8 °F 87.5 °F 69.1 °F 61% 29.83 in 7.0 mi SSE 18.4 mph - N/A   Overcast
12:55 PM 84.2 °F 88.1 °F 69.3 °F 61% 29.82 in 7.0 mi South 15.0 mph 19.6 mph N/A   Mostly Cloudy
1:15 PM 84.6 °F 88.5 °F 69.4 °F 60% 29.80 in 7.0 mi SSE 16.1 mph 19.6 mph N/A   Mostly Cloudy
1:35 PM 85.1 °F 89.1 °F 69.4 °F 59% 29.79 in 7.0 mi SSE 13.8 mph - N/A   Scattered Clouds
1:55 PM 86.4 °F 90.7 °F 69.6 °F 57% 29.79 in 10.0 mi SSE 15.0 mph 23.0 mph N/A   Clear
2:15 PM 86.0 °F 90.1 °F 69.1 °F 57% 29.78 in 7.0 mi SSE 16.1 mph - N/A   Scattered Clouds
2:35 PM 85.5 °F 89.4 °F 69.3 °F 58% 29.78 in 7.0 mi South 16.1 mph 23.0 mph N/A   Mostly Cloudy
2:55 PM 85.1 °F 89.4 °F 69.8 °F 60% 29.78 in 7.0 mi SSE 10.4 mph 18.4 mph N/A   Scattered Clouds
3:15 PM 84.6 °F 89.1 °F 70.2 °F 62% 29.77 in 7.0 mi South 11.5 mph - N/A   Mostly Cloudy
3:35 PM 84.7 °F 89.4 °F 70.5 °F 62% 29.77 in 7.0 mi SSE 11.5 mph - N/A   Mostly Cloudy
3:55 PM 84.9 °F 90.1 °F 70.9 °F 63% 29.77 in 7.0 mi SE 11.5 mph - N/A   Mostly Cloudy
4:15 PM 84.2 °F 89.0 °F 70.9 °F 64% 29.77 in 7.0 mi SE 10.4 mph - N/A   Mostly Cloudy
4:35 PM 83.5 °F 88.2 °F 71.2 °F 66% 29.77 in 7.0 mi SE 9.2 mph - N/A   Mostly Cloudy
4:55 PM 82.9 °F 87.7 °F 71.6 °F 68% 29.77 in 7.0 mi SE 11.5 mph - N/A   Scattered Clouds
5:15 PM 82.4 °F 87.2 °F 71.6 °F 70% 29.78 in 7.0 mi SE 11.5 mph - N/A   Scattered Clouds
5:35 PM 81.7 °F 86.0 °F 71.6 °F 71% 29.78 in 7.0 mi SE 10.4 mph - N/A   Clear
5:55 PM 81.1 °F 84.9 °F 70.7 °F 70% 29.79 in 10.0 mi SE 8.1 mph - N/A   Clear
6:15 PM 80.6 °F 84.2 °F 70.7 °F 72% 29.80 in 7.0 mi SSE 6.9 mph - N/A   Clear
6:35 PM 79.9 °F - 70.7 °F 73% 29.80 in 7.0 mi SE 6.9 mph - N/A   Clear
6:55 PM 79.7 °F - 70.7 °F 74% 29.80 in 7.0 mi SSE 8.1 mph - N/A   Clear
7:15 PM 78.8 °F - 70.7 °F 76% 29.81 in 7.0 mi SSE 8.1 mph - N/A   Clear
7:35 PM 78.3 °F - 70.3 °F 77% 29.82 in 10.0 mi SSE 10.4 mph - N/A   Clear
7:55 PM 78.1 °F - 70.2 °F 77% 29.83 in 7.0 mi SSE 9.2 mph - N/A   Clear
8:15 PM 77.9 °F - 70.2 °F 77% 29.83 in 7.0 mi SSE 8.1 mph - N/A   Clear
8:35 PM 77.0 °F - 70.0 °F 79% 29.83 in 10.0 mi SSE 6.9 mph - N/A   Clear
8:55 PM 77.0 °F - 70.2 °F 79% 29.83 in 10.0 mi SSE 8.1 mph - N/A   Clear
9:15 PM 77.0 °F - 70.2 °F 79% 29.84 in 10.0 mi SSE 9.2 mph - N/A   Clear
9:35 PM 77.0 °F - 69.8 °F 78% 29.84 in 10.0 mi South 9.2 mph - N/A   Clear
9:55 PM 77.0 °F - 69.3 °F 77% 29.84 in 10.0 mi SSE 11.5 mph - N/A   Clear
10:15 PM 76.8 °F - 68.9 °F 76% 29.84 in 10.0 mi SSE 11.5 mph - N/A   Clear
10:35 PM 76.3 °F - 69.1 °F 78% 29.83 in 10.0 mi South 10.4 mph 16.1 mph N/A   Clear
10:55 PM 76.3 °F - 69.3 °F 79% 29.83 in 7.0 mi SSE 10.4 mph - N/A   Clear
11:15 PM 76.3 °F - 69.4 °F 79% 29.82 in 10.0 mi SSE 12.7 mph 17.3 mph N/A   Clear
11:35 PM 76.1 °F - 69.3 °F 79% 29.82 in 7.0 mi SSE 12.7 mph 17.3 mph N/A   Clear
11:55 PM 76.1 °F - 69.1 °F 79% 29.83 in 10.0 mi South 10.4 mph - N/A   Clear